Time,TemperatureF,DewpointF,PressureIn,WindDirection,WindDirectionDegrees,WindSpeedMPH,WindSpeedGustMPH,Humidity,HourlyPrecipIn,Conditions,Clouds,dailyrainin,SoftwareType,DateUTC
2013-06-14 00:00:00,46.6,41.7,30.31,NW,315,0.0,0.0,83,0.00,,,0.98,open2300-1.11,2013-06-14 07:00:00,
2013-06-14 00:10:00,46.2,41.4,30.31,NW,315,0.0,0.0,83,0.00,,,0.98,open2300-1.11,2013-06-14 07:10:00,
2013-06-14 00:20:00,46.0,41.2,30.31,NW,315,0.0,0.0,83,0.00,,,0.98,open2300-1.11,2013-06-14 07:20:00,
2013-06-14 00:30:00,45.9,41.0,30.31,NW,315,0.0,0.0,83,0.00,,,0.98,open2300-1.11,2013-06-14 07:30:00,
2013-06-14 00:40:00,45.5,40.7,30.31,NW,315,0.0,0.0,83,0.00,,,0.98,open2300-1.11,2013-06-14 07:40:00,
2013-06-14 00:50:00,45.1,40.6,30.31,NW,315,0.0,0.0,84,0.00,,,0.98,open2300-1.11,2013-06-14 07:50:00,
2013-06-14 01:00:00,45.5,41.0,30.31,NW,315,0.0,0.0,84,0.00,,,0.98,open2300-1.11,2013-06-14 08:00:00,
2013-06-14 01:10:00,45.5,41.0,30.30,NNW,337,0.0,0.0,84,0.00,,,0.98,open2300-1.11,2013-06-14 08:10:00,
2013-06-14 01:20:00,45.7,41.5,30.30,North,0,0.0,0.0,85,0.00,,,0.98,open2300-1.11,2013-06-14 08:20:00,
2013-06-14 01:30:00,45.5,41.3,30.30,North,0,0.0,0.0,85,0.00,,,0.98,open2300-1.11,2013-06-14 08:30:00,
2013-06-14 01:40:00,45.5,41.3,30.30,North,0,0.0,0.0,85,0.00,,,0.98,open2300-1.11,2013-06-14 08:40:00,
2013-06-14 01:50:00,45.3,41.1,30.29,ENE,67,0.0,0.0,85,0.00,,,0.98,open2300-1.11,2013-06-14 08:50:00,
2013-06-14 02:10:00,45.0,40.7,30.29,ENE,67,0.0,0.0,85,0.00,,,0.98,open2300-1.11,2013-06-14 09:10:00,
2013-06-14 02:20:00,45.0,40.7,30.29,East,90,0.0,0.0,85,0.00,,,0.98,open2300-1.11,2013-06-14 09:20:00,
2013-06-14 02:30:00,45.0,40.7,30.28,East,90,0.0,0.0,85,0.00,,,0.98,open2300-1.11,2013-06-14 09:30:00,
2013-06-14 02:40:00,45.0,40.7,30.28,East,90,0.0,0.0,85,0.00,,,0.98,open2300-1.11,2013-06-14 09:40:00,
2013-06-14 02:50:00,45.0,40.7,30.28,East,90,0.0,0.0,85,0.00,,,0.98,open2300-1.11,2013-06-14 09:50:00,
2013-06-14 03:00:00,45.1,40.9,30.28,East,90,0.0,0.0,85,0.00,,,0.98,open2300-1.11,2013-06-14 10:00:00,
2013-06-14 03:10:00,45.1,41.2,30.28,East,90,0.0,0.0,86,0.00,,,0.96,open2300-1.11,2013-06-14 10:10:00,
2013-06-14 03:20:00,45.1,41.2,30.27,ESE,112,0.0,0.0,86,0.00,,,0.96,open2300-1.11,2013-06-14 10:20:00,
2013-06-14 03:30:00,45.1,41.2,30.27,ESE,112,0.0,0.0,86,0.00,,,0.96,open2300-1.11,2013-06-14 10:30:00,
2013-06-14 03:40:00,45.0,41.0,30.26,ESE,112,0.0,0.0,86,0.00,,,0.96,open2300-1.11,2013-06-14 10:40:00,
2013-06-14 03:50:00,44.4,40.5,30.27,ESE,112,0.0,0.0,86,0.00,,,0.96,open2300-1.11,2013-06-14 10:50:00,
2013-06-14 04:10:00,44.2,40.3,30.27,ESE,112,0.0,0.0,86,0.00,,,0.92,open2300-1.11,2013-06-14 11:10:00,
2013-06-14 04:20:00,44.1,40.1,30.26,ESE,112,0.0,0.0,86,0.00,,,0.92,open2300-1.11,2013-06-14 11:20:00,
2013-06-14 04:30:00,43.3,39.4,30.26,ESE,112,0.0,0.0,86,0.00,,,0.92,open2300-1.11,2013-06-14 11:30:00,
2013-06-14 04:40:00,43.0,39.1,30.27,ESE,112,0.0,0.0,86,0.00,,,0.92,open2300-1.11,2013-06-14 11:40:00,
2013-06-14 04:50:00,43.0,39.1,30.27,ESE,112,0.0,0.0,86,0.00,,,0.92,open2300-1.11,2013-06-14 11:50:00,
2013-06-14 05:00:00,43.0,39.1,30.27,ESE,112,0.0,0.0,86,0.00,,,0.92,open2300-1.11,2013-06-14 12:00:00,
2013-06-14 05:10:00,42.6,38.7,30.27,ESE,112,0.0,0.0,86,0.00,,,0.90,open2300-1.11,2013-06-14 12:10:00,
2013-06-14 05:20:00,42.6,38.7,30.27,ESE,112,0.0,0.0,86,0.00,,,0.90,open2300-1.11,2013-06-14 12:20:00,
2013-06-14 05:30:00,42.6,39.0,30.27,ESE,112,0.0,0.0,87,0.00,,,0.90,open2300-1.11,2013-06-14 12:30:00,
2013-06-14 05:40:00,42.4,38.8,30.26,ESE,112,0.0,0.0,87,0.00,,,0.90,open2300-1.11,2013-06-14 12:40:00,
2013-06-14 05:50:00,42.4,38.8,30.26,ESE,112,0.0,0.0,87,0.00,,,0.90,open2300-1.11,2013-06-14 12:50:00,
2013-06-14 06:00:00,42.4,38.8,30.26,ESE,112,0.0,0.0,87,0.00,,,0.90,open2300-1.11,2013-06-14 13:00:00,
2013-06-14 06:10:00,43.5,39.9,30.26,ESE,112,0.0,0.0,87,0.00,,,0.90,open2300-1.11,2013-06-14 13:10:00,
2013-06-14 06:20:00,43.9,40.3,30.26,ESE,112,0.0,0.0,87,0.00,,,0.90,open2300-1.11,2013-06-14 13:20:00,
2013-06-14 06:30:00,46.0,42.7,30.26,ESE,112,0.0,0.0,88,0.00,,,0.90,open2300-1.11,2013-06-14 13:30:00,
2013-06-14 06:40:00,46.8,43.4,30.26,ESE,112,0.0,0.0,88,0.00,,,0.90,open2300-1.11,2013-06-14 13:40:00,
2013-06-14 06:50:00,48.0,44.7,30.26,ESE,112,0.0,0.0,88,0.00,,,0.90,open2300-1.11,2013-06-14 13:50:00,
2013-06-14 07:00:00,49.1,45.7,30.26,ESE,112,0.0,0.0,88,0.00,,,0.90,open2300-1.11,2013-06-14 14:00:00,
2013-06-14 07:10:00,50.7,46.9,30.26,ESE,112,0.0,0.0,87,0.00,,,0.82,open2300-1.11,2013-06-14 14:10:00,
2013-06-14 07:20:00,51.4,47.0,30.25,East,90,0.0,0.0,85,0.00,,,0.82,open2300-1.11,2013-06-14 14:20:00,
2013-06-14 07:30:00,53.4,48.7,30.25,NE,45,0.0,0.0,84,0.00,,,0.82,open2300-1.11,2013-06-14 14:30:00,
2013-06-14 07:40:00,54.0,48.0,30.26,North,0,0.0,0.0,80,0.00,,,0.82,open2300-1.11,2013-06-14 14:40:00,
2013-06-14 07:50:00,54.0,48.0,30.25,North,0,0.0,0.0,80,0.00,,,0.82,open2300-1.11,2013-06-14 14:50:00,
2013-06-14 08:00:00,53.2,46.9,30.25,North,0,0.0,0.0,79,0.00,,,0.82,open2300-1.11,2013-06-14 15:00:00,
2013-06-14 08:10:00,54.5,48.1,30.25,NNW,337,0.0,0.0,79,0.00,,,0.77,open2300-1.11,2013-06-14 15:10:00,
2013-06-14 08:20:00,55.2,48.1,30.25,NW,315,0.0,0.0,76,0.00,,,0.77,open2300-1.11,2013-06-14 15:20:00,
2013-06-14 08:30:00,54.5,47.1,30.25,NW,315,0.0,0.0,76,0.00,,,0.77,open2300-1.11,2013-06-14 15:30:00,
2013-06-14 08:40:00,55.2,48.1,30.25,North,0,0.0,0.0,77,0.00,,,0.77,open2300-1.11,2013-06-14 15:40:00,
2013-06-14 08:50:00,57.0,49.5,30.25,North,0,0.0,0.0,76,0.00,,,0.77,open2300-1.11,2013-06-14 15:50:00,
2013-06-14 09:00:00,56.8,48.9,30.24,North,0,0.0,0.0,75,0.00,,,0.77,open2300-1.11,2013-06-14 16:00:00,
2013-06-14 09:10:00,57.0,49.1,30.24,North,0,0.0,0.0,75,0.00,,,0.73,open2300-1.11,2013-06-14 16:10:00,
2013-06-14 09:20:00,58.3,50.0,30.23,NNW,337,0.0,0.0,74,0.00,,,0.73,open2300-1.11,2013-06-14 16:20:00,
2013-06-14 09:30:00,57.9,49.6,30.24,North,0,0.0,0.0,74,0.00,,,0.73,open2300-1.11,2013-06-14 16:30:00,
2013-06-14 09:40:00,59.5,50.9,30.24,ENE,67,0.0,0.0,73,0.00,,,0.73,open2300-1.11,2013-06-14 16:40:00,
2013-06-14 09:50:00,61.0,52.0,30.24,WNW,292,0.0,0.0,72,0.00,,,0.73,open2300-1.11,2013-06-14 16:50:00,
2013-06-14 10:00:00,176.2,99.9,30.23,WNW,292,0.0,0.0,110,0.00,,,0.71,open2300-1.11,2013-06-14 17:00:00,
2013-06-14 10:10:00,61.7,51.5,30.23,WNW,292,0.0,114.1,69,0.00,,,0.71,open2300-1.11,2013-06-14 17:10:00,
2013-06-14 10:20:00,61.7,51.5,30.23,WNW,292,0.0,0.0,69,0.00,,,0.71,open2300-1.11,2013-06-14 17:20:00,
2013-06-14 10:30:00,61.7,51.1,30.22,NE,45,0.0,7.6,68,0.00,,,0.71,open2300-1.11,2013-06-14 17:30:00,
2013-06-14 10:40:00,62.6,51.9,30.22,NNE,22,1.8,4.2,68,0.00,,,0.71,open2300-1.11,2013-06-14 17:40:00,
2013-06-14 10:50:00,63.1,52.0,30.22,NE,45,0.0,1.8,67,0.00,,,0.71,open2300-1.11,2013-06-14 17:50:00,
2013-06-14 11:00:00,63.3,50.9,30.21,NW,315,0.0,7.8,64,0.00,,,0.71,open2300-1.11,2013-06-14 18:00:00,
2013-06-14 11:10:00,176.7,99.9,30.21,NW,315,0.0,0.0,110,0.00,,,0.71,open2300-1.11,2013-06-14 18:10:00,
2013-06-14 11:20:00,64.2,50.9,30.21,NE,45,0.0,114.1,62,0.00,,,0.71,open2300-1.11,2013-06-14 18:20:00,
2013-06-14 11:30:00,64.6,50.4,30.21,NNW,337,0.0,8.7,60,0.00,,,0.71,open2300-1.11,2013-06-14 18:30:00,
2013-06-14 11:40:00,65.5,51.3,30.20,North,0,0.0,0.0,60,0.00,,,0.71,open2300-1.11,2013-06-14 18:40:00,
2013-06-14 11:50:00,66.7,51.0,30.20,ENE,67,0.0,8.3,57,0.00,,,0.71,open2300-1.11,2013-06-14 18:50:00,
2013-06-14 12:00:00,66.0,50.3,30.20,ENE,67,0.0,0.0,57,0.00,,,0.71,open2300-1.11,2013-06-14 19:00:00,
2013-06-14 12:10:00,66.6,50.8,30.20,North,0,1.6,6.7,57,0.00,,,0.71,open2300-1.11,2013-06-14 19:10:00,
2013-06-14 12:20:00,66.4,50.7,30.19,NNW,337,6.7,6.7,57,0.00,,,0.71,open2300-1.11,2013-06-14 19:20:00,
2013-06-14 12:30:00,66.4,50.7,30.19,WNW,292,5.8,6.7,57,0.00,,,0.71,open2300-1.11,2013-06-14 19:30:00,
2013-06-14 12:40:00,176.2,99.9,30.18,WNW,292,0.0,0.0,110,0.00,,,0.71,open2300-1.11,2013-06-14 19:40:00,
2013-06-14 12:50:00,65.8,49.7,30.18,NNE,22,7.2,114.1,56,0.00,,,0.71,open2300-1.11,2013-06-14 19:50:00,
2013-06-14 13:00:00,66.0,49.9,30.18,NNW,337,0.0,7.2,56,0.00,,,0.67,open2300-1.11,2013-06-14 20:00:00,
2013-06-14 13:10:00,66.4,50.2,30.18,NNW,337,0.0,7.6,56,0.00,,,0.67,open2300-1.11,2013-06-14 20:10:00,
2013-06-14 13:20:00,66.4,49.7,30.17,NNW,337,7.4,8.1,55,0.00,,,0.67,open2300-1.11,2013-06-14 20:20:00,
2013-06-14 13:30:00,66.6,49.9,30.17,NNW,337,0.0,7.4,55,0.00,,,0.67,open2300-1.11,2013-06-14 20:30:00,
2013-06-14 13:40:00,67.3,50.5,30.16,NNW,337,7.4,8.5,55,0.00,,,0.67,open2300-1.11,2013-06-14 20:40:00,
2013-06-14 13:50:00,67.6,50.4,30.15,NNE,22,6.5,10.1,54,0.00,,,0.67,open2300-1.11,2013-06-14 20:50:00,
2013-06-14 14:00:00,67.6,49.9,30.15,North,0,7.6,8.7,53,0.00,,,0.67,open2300-1.11,2013-06-14 21:00:00,
2013-06-14 14:10:00,67.8,49.5,30.14,NW,315,6.3,8.1,52,0.00,,,0.59,open2300-1.11,2013-06-14 21:10:00,
2013-06-14 14:20:00,68.2,50.4,30.14,NNW,337,8.1,8.1,53,0.00,,,0.59,open2300-1.11,2013-06-14 21:20:00,
2013-06-14 14:30:00,68.4,50.0,30.13,NNW,337,5.6,8.9,52,0.00,,,0.59,open2300-1.11,2013-06-14 21:30:00,
2013-06-14 14:40:00,68.2,49.9,30.13,NW,315,7.2,12.1,52,0.00,,,0.59,open2300-1.11,2013-06-14 21:40:00,
2013-06-14 14:50:00,68.2,49.9,30.13,NNW,337,7.8,9.8,52,0.00,,,0.59,open2300-1.11,2013-06-14 21:50:00,
2013-06-14 15:00:00,68.5,49.7,30.12,NW,315,4.2,7.8,51,0.00,,,0.59,open2300-1.11,2013-06-14 22:00:00,
2013-06-14 15:10:00,176.5,99.9,30.11,NW,315,0.0,0.0,110,0.00,,,0.59,open2300-1.11,2013-06-14 22:10:00,
2013-06-14 15:20:00,69.1,50.2,30.11,NNW,337,0.0,114.1,51,0.00,,,0.59,open2300-1.11,2013-06-14 22:20:00,
2013-06-14 15:30:00,69.6,50.7,30.10,NNW,337,7.4,8.1,51,0.00,,,0.59,open2300-1.11,2013-06-14 22:30:00,
2013-06-14 15:40:00,69.6,50.7,30.10,NNE,22,6.9,11.9,51,0.00,,,0.59,open2300-1.11,2013-06-14 22:40:00,
2013-06-14 15:50:00,69.6,50.2,30.10,NNW,337,6.9,12.8,50,0.00,,,0.59,open2300-1.11,2013-06-14 22:50:00,
2013-06-14 16:00:00,69.3,50.4,30.10,NNW,337,4.5,8.7,51,0.00,,,0.59,open2300-1.11,2013-06-14 23:00:00,
2013-06-14 16:10:00,69.4,50.5,30.10,NNW,337,6.3,8.9,51,0.00,,,0.02,open2300-1.11,2013-06-14 23:10:00,
2013-06-14 16:20:00,69.6,50.7,30.09,NNW,337,7.2,8.3,51,0.00,,,0.02,open2300-1.11,2013-06-14 23:20:00,
2013-06-14 16:30:00,69.6,50.7,30.09,NW,315,5.4,11.4,51,0.00,,,0.02,open2300-1.11,2013-06-14 23:30:00,
2013-06-14 16:40:00,69.3,50.4,30.08,NNW,337,9.8,11.9,51,0.00,,,0.02,open2300-1.11,2013-06-14 23:40:00,
2013-06-14 16:50:00,69.4,50.5,30.07,North,0,8.5,9.8,51,0.00,,,0.02,open2300-1.11,2013-06-14 23:50:00,
2013-06-14 17:00:00,69.3,50.9,30.07,North,0,8.1,8.5,52,0.00,,,0.02,open2300-1.11,2013-06-15 00:00:00,
2013-06-14 17:10:00,69.4,51.0,30.07,North,0,12.3,12.3,52,0.00,,,0.00,open2300-1.11,2013-06-15 00:10:00,
2013-06-14 17:20:00,69.6,51.2,30.06,North,0,4.2,12.3,52,0.00,,,0.00,open2300-1.11,2013-06-15 00:20:00,
2013-06-14 17:30:00,69.4,51.0,30.05,NNW,337,8.7,11.0,52,0.00,,,0.00,open2300-1.11,2013-06-15 00:30:00,
2013-06-14 17:40:00,69.1,50.7,30.05,North,0,6.5,11.6,52,0.00,,,0.00,open2300-1.11,2013-06-15 00:40:00,
2013-06-14 17:50:00,69.3,51.4,30.05,NW,315,7.4,8.3,53,0.00,,,0.00,open2300-1.11,2013-06-15 00:50:00,
2013-06-14 18:00:00,69.1,51.2,30.04,North,0,7.4,7.4,53,0.00,,,0.00,open2300-1.11,2013-06-15 01:00:00,
2013-06-14 18:10:00,69.6,51.7,30.03,North,0,6.3,9.2,53,0.00,,,0.00,open2300-1.11,2013-06-15 01:10:00,
2013-06-14 18:20:00,69.6,51.7,30.02,NNE,22,7.2,7.2,53,0.00,,,0.00,open2300-1.11,2013-06-15 01:20:00,
2013-06-14 18:30:00,69.6,51.7,30.02,North,0,11.0,12.8,53,0.00,,,0.00,open2300-1.11,2013-06-15 01:30:00,
2013-06-14 18:40:00,70.0,51.5,30.02,North,0,11.2,13.9,52,0.00,,,0.00,open2300-1.11,2013-06-15 01:40:00,
2013-06-14 18:50:00,70.0,51.5,30.02,NNE,22,7.6,11.2,52,0.00,,,0.00,open2300-1.11,2013-06-15 01:50:00,
2013-06-14 19:00:00,70.2,51.7,30.02,NNW,337,5.8,7.6,52,0.00,,,0.00,open2300-1.11,2013-06-15 02:00:00,
2013-06-14 19:10:00,70.0,51.5,30.01,North,0,6.9,8.1,52,0.00,,,0.00,open2300-1.11,2013-06-15 02:10:00,
2013-06-14 19:20:00,69.4,51.0,30.01,NNW,337,7.4,9.2,52,0.00,,,0.00,open2300-1.11,2013-06-15 02:20:00,
2013-06-14 19:30:00,68.9,50.5,30.01,NNW,337,6.0,11.4,52,0.00,,,0.00,open2300-1.11,2013-06-15 02:30:00,
2013-06-14 19:40:00,69.1,50.7,30.01,North,0,8.9,8.9,52,0.00,,,0.00,open2300-1.11,2013-06-15 02:40:00,
2013-06-14 19:50:00,68.4,50.0,30.01,NNW,337,8.3,8.9,52,0.00,,,0.00,open2300-1.11,2013-06-15 02:50:00,
2013-06-14 20:00:00,68.2,50.4,30.01,North,0,5.1,8.3,53,0.00,,,0.00,open2300-1.11,2013-06-15 03:00:00,
2013-06-14 20:10:00,68.2,50.4,30.00,North,0,5.4,7.2,53,0.00,,,0.00,open2300-1.11,2013-06-15 03:10:00,
2013-06-14 20:20:00,67.3,50.0,30.00,North,0,6.3,7.6,54,0.00,,,0.00,open2300-1.11,2013-06-15 03:20:00,
2013-06-14 20:30:00,66.7,50.0,30.00,NNW,337,0.0,8.1,55,0.00,,,0.00,open2300-1.11,2013-06-15 03:30:00,
2013-06-14 20:40:00,66.2,49.5,30.00,NNE,22,1.1,8.7,55,0.00,,,0.00,open2300-1.11,2013-06-15 03:40:00,
2013-06-14 20:50:00,65.3,49.1,30.00,NW,315,6.9,7.4,56,0.00,,,0.00,open2300-1.11,2013-06-15 03:50:00,
2013-06-14 21:00:00,64.0,48.4,30.00,NNW,337,0.0,7.4,57,0.00,,,0.00,open2300-1.11,2013-06-15 04:00:00,
2013-06-14 21:10:00,63.3,48.2,29.99,NW,315,2.0,8.9,58,0.00,,,0.00,open2300-1.11,2013-06-15 04:10:00,
2013-06-14 21:20:00,62.4,47.9,29.99,NW,315,0.0,2.9,59,0.00,,,0.00,open2300-1.11,2013-06-15 04:20:00,
2013-06-14 21:30:00,61.9,47.9,29.99,NW,315,6.3,7.2,60,0.00,,,0.00,open2300-1.11,2013-06-15 04:30:00,
2013-06-14 21:40:00,61.5,48.0,29.99,NW,315,2.2,6.3,61,0.00,,,0.00,open2300-1.11,2013-06-15 04:40:00,
2013-06-14 21:50:00,60.6,47.6,29.99,NNW,337,2.7,6.0,62,0.00,,,0.00,open2300-1.11,2013-06-15 04:50:00,
2013-06-14 22:00:00,60.6,48.0,29.99,NNW,337,2.0,2.7,63,0.00,,,0.00,open2300-1.11,2013-06-15 05:00:00,
2013-06-14 22:10:00,60.4,47.8,29.99,NNW,337,0.0,2.0,63,0.00,,,0.00,open2300-1.11,2013-06-15 05:10:00,
2013-06-14 22:20:00,59.7,47.5,29.99,NW,315,2.7,7.6,64,0.00,,,0.00,open2300-1.11,2013-06-15 05:20:00,
2013-06-14 22:30:00,59.5,47.3,29.99,WNW,292,5.1,5.1,64,0.00,,,0.00,open2300-1.11,2013-06-15 05:30:00,
2013-06-14 22:40:00,59.2,47.4,29.99,NNW,337,1.6,5.8,65,0.00,,,0.00,open2300-1.11,2013-06-15 05:40:00,
2013-06-14 22:50:00,58.8,47.0,29.98,NW,315,6.5,7.4,65,0.00,,,0.00,open2300-1.11,2013-06-15 05:50:00,
2013-06-14 23:00:00,58.8,47.0,29.98,NNW,337,0.0,6.5,65,0.00,,,0.00,open2300-1.11,2013-06-15 06:00:00,
2013-06-14 23:10:00,58.5,47.1,29.98,NNW,337,0.0,2.9,66,0.00,,,0.00,open2300-1.11,2013-06-15 06:10:00,
2013-06-14 23:20:00,58.1,47.2,29.97,WNW,292,0.0,2.7,67,0.00,,,0.00,open2300-1.11,2013-06-15 06:20:00,
2013-06-14 23:30:00,57.9,47.0,29.97,NW,315,0.0,2.5,67,0.00,,,0.00,open2300-1.11,2013-06-15 06:30:00,
2013-06-14 23:40:00,57.4,46.8,29.98,NW,315,0.0,1.6,68,0.00,,,0.00,open2300-1.11,2013-06-15 06:40:00,
2013-06-14 23:50:00,57.2,46.7,29.97,NW,315,0.0,0.0,68,0.00,,,0.00,open2300-1.11,2013-06-15 06:50:00,